Regional Weather Roundup
Issued by NWS

Home | Current Version | Previous Version | Text Only | Print | Product List | Glossary On
Versions: 1 2 3 4 5 6 7 8 9 10 11 12 13 14 15 16 17 18 19 20 21 22 23 24 25 26 27 28 29 30 31 32 33 34 35 36 37 38 39 40 41 42 43 44 45 46 47 48 49 50
000
ASUS43 KLOT 210010
RWRIL

ILLINOIS REGIONAL WEATHER ROUNDUP
NATIONAL WEATHER SERVICE CHICAGO/ROMEOVILLE IL
700 PM CDT WED AUG 20 2014

NOTE: "FAIR" INDICATES FEW OR NO CLOUDS BELOW 12,000 FEET WITH NO
SIGNIFICANT WEATHER AND/OR OBSTRUCTIONS TO VISIBILITY.

* THESE STATIONS ARE NOT UNDER NWS QUALITY CONTROL. THEY ALSO MAY NOT
  REPORT WEATHER SUCH AS PRECIPITATION OR FOG.

ILZ001-002-007-009-015-016-024-210100-
NORTHWEST ILLINOIS

CITY           SKY/WX    TMP DP  RH WIND       PRES   REMARKS
MOLINE         MOCLDY    76  70  82 SW5       29.89S
6HR MIN TEMP:  75; 6HR MAX TEMP:  79; 6HR PCP: TRACE;

STERLING*      MOCLDY    75  66  73 W10       29.91R
SAVANNA*       CLOUDY    76  66  71 SW10      29.90S
$$

ILZ003-004-008-010-011-017-018-210100-
NORTH CENTRAL ILLINOIS

CITY           SKY/WX    TMP DP  RH WIND       PRES   REMARKS
ROCKFORD       MOCLDY    80  67  64 SW5       29.89F HX  82
6HR MIN TEMP:  80; 6HR MAX TEMP:  86;

FREEPORT*      PTCLDY    78  71  78 SW12      29.92R HX  80
ROCHELLE*      PTCLDY    76  68  76 SW6       29.90F
DE KALB*       PTCLDY    77  68  74 SW7       29.89F
PERU*          CLOUDY    75  67  74 SW7       29.89F
$$

ILZ005-006-012>014-019>023-210100-
NORTHEAST ILLINOIS

CITY           SKY/WX    TMP DP  RH WIND       PRES   REMARKS
CHICAGO-OHARE  MOCLDY    82  63  52 W10       29.88R HX  83
6HR MIN TEMP:  82; 6HR MAX TEMP:  86;

CHICAGO-MIDWAY PTCLDY    84  68  58 W10       29.88S HX  87
6HR MIN TEMP:  84; 6HR MAX TEMP:  87;

AURORA         PTCLDY    79  69  71 SW9       29.90S HX  81
6HR MIN TEMP:  79; 6HR MAX TEMP:  85;

LANSING*       PTCLDY    81  68  65 W9        29.89F HX  83
JOLIET*        PTCLDY    79  68  69 SW6       29.91R HX  81
WAUKEGAN       PTCLDY    81  66  60 SW5       29.88R HX  83
6HR MIN TEMP:  80; 6HR MAX TEMP:  85;

DUPAGE AIRPORT CLEAR     81  65  58 W9        29.90R HX  83
6HR MIN TEMP:  81; 6HR MAX TEMP:  86;

KANKAKEE*      MOCLDY    75  69  81 W5        29.91F
WHEELING       PTCLDY    83  65  54 W10       29.89R HX  85
6HR MIN TEMP:  83; 6HR MAX TEMP:  87;

MORRIS*        PTCLDY    77  70  78 W6        29.91R
ROMEOVILLE*    PTCLDY    78  69  74 W9        29.90R HX  80
NORTHERLY ISL    N/A     83  62  49 W13         N/A  HX  84
$$

LMZ740>746-210100-
SOUTHERN LAKE MICHIGAN

STATION/POSITION SKY/WX   TEMP    WIND        PRES    VSBY  WAVE
                          AIR SEA DIR/SP/G                  HT/PER
                          (F)     (DEG/KT/KT) (MB)    (MI)  (FT/S)
SOUTHERN BUOY              69 68   60/  6/  6 1012.2R         0
WAUKEGAN HARBOR            75      40/  2/  6   N/A
HARRISON CRIB              83     240/ 12/ 14   N/A
BURNHAM HARBOR             83     280/  6/ 13   N/A
CALUMET HARBOR             83     220/  7/ 11 1010.8R
BURNS HARBOR               83     220/ 10/ 13   N/A
MICHIGAN CITY              79     220/  9/ 10   N/A
MICHIGAN CITY 6N           77 73  250/  6/  6   N/A           1
ST. JOSEPH                 76 71  200/  2/  2   N/A           0
$$

ILZ025>027-034>036-040-047-049-050-058-095>099-210100-
WEST-CENTRAL ILLINOIS

CITY           SKY/WX    TMP DP  RH WIND       PRES   REMARKS
QUINCY         CLEAR     84  77  79 SE5       29.89F HX  94
GALESBURG*     MOCLDY    78  72  81 S5        29.91F HX  80
MACOMB*        PTCLDY    79  74  85 CALM      29.93F HX  82
JACKSONVILLE*  CLEAR     81  74  80 S7        29.92F HX  86
PITTSFIELD*    CLEAR     83  75  78 SE6       29.92S HX  90
$$

ILZ028>032-037-038-041>044-048-051>054-059>061-210100-
CENTRAL ILLINOIS

CITY           SKY/WX    TMP DP  RH WIND       PRES   REMARKS
PONTIAC        CLOUDY    75  72  88 W3        29.91R
DECATUR        PTCLDY    78  71  79 SW7       29.94S HX  80
PEORIA         PTCLDY    80  71  74 SW5       29.91F HX  84
6HR MIN TEMP:  74; 6HR MAX TEMP:  81; 6HR PCP: TRACE;

LACON*         CLOUDY    75  70  83 CALM      29.90F
LINCOLN*       PTCLDY    82  72  71 S3        29.90S HX  86
SPRINGFIELD    PTCLDY    80  71  74 S8        29.93F HX  84
6HR MIN TEMP:  72; 6HR MAX TEMP:  84; 6HR PCP:  0.01;

TAYLORVILLE    CLEAR     75  70  83 S6        29.93F
$$

ILZ033-039-045-046-055>057-062-063-210100-
EAST-CENTRAL ILLINOIS

CITY           SKY/WX    TMP DP  RH WIND       PRES   REMARKS
CHAMPAIGN      PTCLDY    77  71  82 SW5       29.94S
DANVILLE*      RAIN      74  69  83 W5        29.92S
RANTOUL*       PTCLDY    77  67  72 W5        29.93F
MATTOON        CLEAR     77  69  76 SW3       29.94F
PARIS*         PTCLDY    75  71  86 W3        29.95S
$$

ILZ079-100>102-210100-
SOUTHWEST ILLINOIS

CITY           SKY/WX    TMP DP  RH WIND       PRES   REMARKS
BELLEVILLE     CLEAR     83  76  81 NE7       29.92S HX  91
CAHOKIA*       CLEAR     84  75  74 SE7       29.91S HX  92
SPARTA*        PTCLDY    80  74  81 E6        29.93S HX  84
$$

ILZ064>066-069>071-074>076-080>082-084>086-088>090-092>094-210100-
SOUTH-CENTRAL ILLINOIS

CITY           SKY/WX    TMP DP  RH WIND       PRES   REMARKS
CARBONDALE     MOCLDY    81  75  82 E5        29.93S HX  87
6HR MIN TEMP:  81; 6HR MAX TEMP:  91; 6HR PCP: TRACE;

CAIRO*         MOCLDY    91  74  58 S5        29.93R HX 100
MARION         CLOUDY    82  73  74 E7        29.94S HX  88
MT. VERNON     CLEAR     82  70  65 CALM      29.95S HX  86
CENTRALIA*     CLEAR     83  67  58 CALM      29.95S HX  86
SALEM*         CLEAR     82  73  75 SE3       29.95S HX  87
$$

ILZ067-068-072-073-078-083-087-091-210100-
SOUTHEAST ILLINOIS

CITY           SKY/WX    TMP DP  RH WIND       PRES   REMARKS
LAWRENCEVILLE  PTCLDY    79  71  76 SW3       29.95S HX  82
FLORA*         PTCLDY    79  71  76 S6        29.96R HX  82
FAIRFIELD*     CLEAR     81  75  83 CALM      29.95R HX  86
HARRISBURG*    MOCLDY    81  73  76 E3        29.96S HX  85
ROBINSON*      PTCLDY    78  72  82 SW3       29.95S HX  80
CARMI*         PTCLDY    82  73  74 SE3       29.96R HX  88
$$

ABBREVIATIONS USED IN REMARKS
   TC - TEMPERATURE IN CELSIUS
  WCI - WIND CHILL INDEX
   HX - HEAT INDEX
  VSB - VISIBILITY
$$



USA.gov is the U.S. government's official web portal to all federal, state and local government web resources and services.